[[{"header":{"parameterUnit":"m.s-1","parameterCategory":1,"la1":30.2992,"la2":30.254,"lo1":-89.0895,"lo2":-89.0443,"dy":0.0025,"dx":0.0025,"nx":19,"ny":19,"refTime":"2026-05-23T03:00:00:Z","depth":0,"parameterNumber":2,"parameterNumberName":"U-component_of_WINDS"},"data":[0,0,0,-3.4456,-3.4458,-3.4508,-3.4508,-3.4568,-3.4569,0,0,0,0,0,0,0,0,0,0,0,-3.444,-3.444,-3.4456,-3.4458,-3.4508,-3.4508,-3.4568,-3.4569,0,0,0,0,0,0,0,0,0,0,0,-3.444,-3.444,-3.4441,-3.4458,-3.4508,-3.4508,-3.4568,-3.4531,0,0,0,0,0,0,0,0,0,0,-3.4483,-3.4466,-3.444,-3.4441,-3.4458,-3.4508,-3.4508,-3.453,-3.4534,-3.4544,0,-3.4554,0,-3.4563,-3.4573,-3.4573,0,0,0,-3.4458,-3.4463,-3.4478,-3.4441,-3.4459,-3.4508,-3.4485,-3.4532,-3.4537,-3.455,-3.4555,-3.4557,-3.4564,-3.4573,-3.4573,-3.4635,-3.4635,0,0,-3.4456,-3.4448,-3.4475,-3.4481,-3.4474,-3.4484,-3.4487,-3.4535,-3.4539,-3.4555,-3.4559,-3.4565,-3.4574,-3.4574,-3.4634,-3.4635,0,0,0,-3.4447,-3.4446,-3.446,-3.4479,-3.4488,-3.4485,-3.4489,-3.4537,-3.4543,-3.4559,-3.4565,-3.4574,-3.4575,-3.4634,-3.4634,-3.4639,0,0,0,-3.4445,-3.4441,-3.4459,-3.4454,-3.4487,-3.4514,-3.449,-3.4539,-3.4545,-3.4565,-3.4574,-3.4575,-3.4634,-3.4634,-3.4638,-3.4641,0,0,0,-3.4437,-3.444,-3.4447,-3.4454,-3.4475,-3.4513,-3.4521,-3.4541,-3.4549,-3.4573,-3.4575,-3.4634,-3.4634,-3.4638,-3.464,-3.4655,0,0,0,-3.4425,-3.4449,-3.4447,-3.4475,-3.4475,-3.4516,-3.4521,-3.4552,-3.4573,-3.4574,-3.4634,-3.4634,-3.4637,-3.464,-3.4654,-3.4665,-3.4669,0,0,-3.445,-3.4452,-3.4469,-3.4469,-3.4509,-3.4509,-3.455,-3.4576,-3.4585,-3.4617,-3.4619,-3.4638,-3.464,-3.4655,-3.4697,-3.47,0,0,0,-3.4474,-3.4487,-3.4499,-3.452,-3.4542,-3.4561,-3.4583,-3.4593,-3.4621,-3.46,-3.4649,-3.465,-3.4659,-3.4664,-3.4667,-3.4674,-3.4637,-3.4637,-3.4637,-3.4496,-3.4508,-3.4538,-3.4557,-3.4578,-3.4601,-3.4618,-3.4636,-3.4641,-3.4652,-3.4661,-3.4685,-3.4691,-3.4693,-3.4701,-3.4669,-3.4669,-3.4669,-3.4669,-3.4532,-3.4552,-3.4561,-3.4593,-3.4606,-3.4632,-3.4656,-3.4659,-3.4686,-3.4679,-3.4687,-3.4677,-3.4696,-3.4704,-3.4669,-3.4669,-3.4669,-3.4669,-3.4669,-3.4547,-3.4558,-3.4572,-3.4605,-3.4629,-3.4647,-3.4673,-3.4684,-3.4693,-3.4702,-3.4712,-3.4712,-3.4712,-3.4707,-3.4707,-3.4707,-3.4707,-3.4707,-3.4707,-3.4555,-3.4571,-3.4591,-3.4619,-3.4635,-3.4657,-3.4683,-3.4698,-3.4718,-3.4723,-3.4723,-3.4727,-3.4697,-3.4688,-3.4708,-3.4708,-3.4708,-3.4708,-3.4708,-3.4584,-3.458,-3.4612,-3.4628,-3.4662,-3.4686,-3.4701,-3.4731,-3.4746,-3.4758,-3.4761,-3.4738,-3.4739,-3.4737,-3.4729,-3.4759,-3.4759,-3.4759,-3.4759,-3.4595,-3.4598,-3.4634,-3.4659,-3.4685,-3.4703,-3.4738,-3.4759,-3.4779,-3.4789,-3.4787,-3.4779,-3.4776,-3.4779,-3.4776,-3.4769,-3.4808,-3.4808,-3.4808,-3.4614,-3.462,-3.4648,-3.467,-3.4698,-3.4722,-3.4755,-3.4783,-3.4805,-3.4811,-3.4796,-3.4794,-3.4782,-3.4777,-3.4779,-3.4774,-3.4762,0,0]},{"header":{"parameterUnit":"m.s-1","parameterCategory":1,"la1":30.2992,"la2":30.254,"lo1":-89.0895,"lo2":-89.0443,"dy":0.0025,"dx":0.0025,"nx":19,"ny":19,"refTime":"2026-05-23T03:00:00:Z","depth":0,"parameterNumber":3,"parameterNumberName":"V-component_of_WINDS"},"data":[0,0,0,4.8205,4.8204,4.8167,4.8167,4.812,4.812,0,0,0,0,0,0,0,0,0,0,0,4.8217,4.8217,4.8205,4.8204,4.8167,4.8167,4.8121,4.812,0,0,0,0,0,0,0,0,0,0,0,4.8217,4.8217,4.8217,4.8204,4.8167,4.8167,4.8121,4.8148,0,0,0,0,0,0,0,0,0,0,4.8183,4.8196,4.8217,4.8217,4.8203,4.8167,4.8167,4.8149,4.8146,4.8138,0,4.8132,0,4.8126,4.8117,4.8117,0,0,0,4.8202,4.8199,4.8188,4.8216,4.8203,4.8168,4.8183,4.8147,4.8144,4.8134,4.8131,4.813,4.8125,4.8117,4.8117,4.8081,4.8081,0,0,4.8204,4.821,4.819,4.8186,4.8194,4.8184,4.8182,4.8145,4.8142,4.8131,4.8128,4.8124,4.8117,4.8116,4.8081,4.8081,0,0,0,4.8211,4.8212,4.8202,4.8188,4.8182,4.8183,4.8181,4.8144,4.814,4.8128,4.8124,4.8116,4.8116,4.8081,4.8081,4.8085,0,0,0,4.8212,4.8216,4.8203,4.8207,4.8182,4.8163,4.818,4.8143,4.8138,4.8124,4.8116,4.8115,4.8081,4.8081,4.8085,4.8085,0,0,0,4.8219,4.8217,4.8213,4.8207,4.8192,4.8163,4.8157,4.8142,4.8136,4.8117,4.8115,4.8081,4.8081,4.8085,4.8085,4.8079,0,0,0,4.8227,4.8214,4.8213,4.8197,4.8192,4.8167,4.8157,4.8137,4.8121,4.8116,4.8081,4.8081,4.8085,4.8085,4.8079,4.8075,4.8074,0,0,4.8214,4.8213,4.8203,4.8201,4.8178,4.8172,4.8149,4.8126,4.8117,4.8093,4.8092,4.8085,4.8085,4.8079,4.8066,4.8066,0,0,0,4.8201,4.8195,4.8187,4.8174,4.8159,4.8146,4.8128,4.812,4.81,4.8107,4.8081,4.8081,4.8077,4.8074,4.8074,4.807,4.808,4.808,4.808,4.8191,4.8184,4.8168,4.8156,4.8143,4.8127,4.8115,4.8102,4.8094,4.8089,4.8081,4.8075,4.8073,4.8072,4.8068,4.8078,4.8079,4.8079,4.8079,4.8173,4.8162,4.8157,4.814,4.8131,4.8115,4.8099,4.8095,4.8079,4.8079,4.8075,4.8075,4.8072,4.8068,4.8079,4.8079,4.8079,4.8079,4.8079,4.8165,4.8159,4.8152,4.8135,4.8122,4.811,4.8097,4.8088,4.808,4.8077,4.8069,4.8069,4.8068,4.8074,4.8074,4.8074,4.8074,4.8074,4.8074,4.816,4.8152,4.8143,4.8129,4.8121,4.8109,4.8095,4.8086,4.8074,4.8069,4.8069,4.8063,4.8073,4.8076,4.8073,4.8073,4.8073,4.8073,4.8073,4.8143,4.8146,4.8131,4.8124,4.8108,4.8097,4.8089,4.8073,4.8065,4.8058,4.8055,4.8063,4.806,4.806,4.8062,4.8056,4.8056,4.8056,4.8056,4.8136,4.8135,4.812,4.8109,4.8097,4.8089,4.8073,4.8062,4.8051,4.8046,4.8046,4.8048,4.8049,4.8045,4.8046,4.8048,4.8038,4.8038,4.8038,4.8126,4.8124,4.8112,4.8104,4.8091,4.8081,4.8066,4.8053,4.8041,4.8037,4.8041,4.8042,4.8046,4.8048,4.8042,4.8043,4.8046,0,0]}]]